H-2A R/B (43682 NORAD) Tracking and Keplerian Element Data

This shows tracking and keplerian element data for the satellite.

Feedback or suggestion? Click here.




ElementValue
Catalog43682
NameH-2A R/B
Epoch Orbit28584
Epoch Day12.76420242
Epoch Year2024
RAAN75.1015
Inclination98.8693
Eccentricity0.0047821
Argument of Perigee169.1978
Mean Anonmoly191.0287
Mean Motion15.11579447
Decay Rate8.854E-05
L11 43682U 18084L 24012.76420242 .00008854 00000+0 51229-3 0 9996
L22 43682 98.8693 75.1015 0047821 169.1978 191.0287 15.11579447285849



Live tracking and technical data element details for H-2A R/B (NORAD 43682). H-2A R/B can be tracked NOW for your location showing map with azimuth and elevation plus other details from your city location.







IsCatalogInMostPopularTable: catalog: 43682, numindb: 425
Update: records affected: 1



GetName: 43682 H-2A R/B

Hit Count: updated at: Sun, 14 Apr 2024 23:41:52 GMT